Location: Saluda
(35.2377°N, 82.3468°W)
Time: 03:51:24
(UTC+00:00)

SR - Pass Details

Date: 06 October 2022
Orbit: 577 x 874 km, 66.7° (Epoch: 07 December)

Event Time Altitude Azimuth Distance (km) Brightness Sun altitude
Rises 02:22:20 0° 240° (WSW) 3,422 ? -39.6°
Reaches altitude 10° 02:25:13 10° 253° (WSW) 2,509 ? -40.2°
Enters shadow 02:28:56 24° 291° (WNW) 1,732 ? -40.8°
